User: anonymous   Login
Location: Unspecified
(0.0000°N, 0.0000°E)
Time: 20:01:59
(UTC+00:00)
Language:

STARLINK-6287 - Orbit

View from above orbital plane
View from above orbital plane
View from above satellite
View from above satellite

Ground track
Ground track

The orbit is defined by the following mean orbital elements,

1 56404U          26145.26664885 +.00000000 +00000-0 +53715-5 0 00001
2 56404  43.0020 114.7718 0001335 267.8356  92.2343 15.27573472    04
Epoch (UTC): 25 May 2026 06:23:58
Eccentricity: 0.0001335
inclination: 43.0020°
perigee height: 482 km
apogee height: 484 km
right ascension of ascending node: 114.7718°
argument of perigee: 267.8356°
revolutions per day: 15.27573472
mean anomaly at epoch: 92.2343°

The dashed part of the orbit path shows where the satellite is in the earth's shadow,  

DLR